Hourly Weather Roundup
Issued by NWS Central Illinois

Home | Current Version | Previous Version | Text Only | Print | Product List | Glossary On
Versions: 1 2 3 4 5 6 7 8 9 10 11 12 13 14 15 16 17 18 19 20 21 22 23 24 25 26 27 28 29 30 31 32 33 34 35 36 37 38 39 40 41 42 43 44 45 46 47 48 49 50
000
NZUS43 KILX 021410
HWRILX

AREA WEATHER ROUNDUP
NATIONAL WEATHER SERVICE, LINCOLN IL
800 AM CST MON MAR 02 2015


CITY           SKY/WX    TMP DP  RH WIND       PRES   REMARKS
BLOOMINGTON    MOSUNNY   13  10  87 W5        30.52R WCI   5
CHAMPAIGN      PTSUNNY   11   8  88 N6        30.52R FOG     WCI   1
DECATUR        PTSUNNY   22  15  75 NW8       30.53R WCI  12
FLORA          MOSUNNY   14  12  90 CALM      30.55S FOG
GALESBURG      MOSUNNY   10   8  92 CALM      30.52S
JACKSONVILLE   FOG       13  10  87 CALM      30.54R VSB<1/4
LACON          MOSUNNY   11   7  86 CALM      30.53R FOG
LAWRENCEVILLE  MOSUNNY   16  14  92 CALM      30.56R FOG
LITCHFIELD       N/A     10   7  87 CALM      30.53R FOG
$$


CITY           SKY/WX    TMP DP  RH WIND       PRES   REMARKS
LINCOLN        PTSUNNY   13  10  87 CALM      30.56R
MACOMB         MOSUNNY   10   9  92 NW5       30.56R FOG     WCI   2
MATTOON        MOSUNNY   16  11  80 W5        30.51R HAZE    WCI   9
MT CARMEL AP   MOSUNNY   18  14  86 CALM      30.56R FOG
OLNEY-NOBLE AP FOG       12  10  92 CALM      30.56S VSB 1/2
PARIS          PTSUNNY    9   7  90 CALM      30.55R
PEORIA         MOSUNNY   19  13  77 CALM      30.54R
PONTIAC        MOSUNNY    9   7  90 CALM      30.53R FOG
RANTOUL        PTSUNNY   14  10  84 NW10      30.52R WCI   1
ROBINSON       MOSUNNY   10   8  92 CALM      30.57R FOG
SPRINGFIELD    MOSUNNY   14  12  92 CALM      30.54R FOG
TAYLORVILLE    FOG       12  10  92 CALM      30.53R VSB 1/4
$$

...REGIONAL REPORTS...


CITY           SKY/WX    TMP DP  RH WIND       PRES   REMARKS
CHICAGO O`HARE MOSUNNY   16   9  74 W7        30.48R WCI   6
KANKAKEE       PTSUNNY    5   2  88 W5        30.52R WCI  -4
MOLINE         MOSUNNY    7   3  84 W6        30.54R WCI  -3
MOUNT VERNON   MOSUNNY   12   9  85 CALM      30.55S
PITTSFIELD     MOSUNNY   13  10  89 W6        30.54R FOG     WCI   4
QUINCY         FOG       18  16  92 NW5       30.53R VSB 1   WCI  11
ROCKFORD       MOSUNNY   10   7  87 S3        30.52R
$$


CITY           SKY/WX    TMP DP  RH WIND       PRES   REMARKS
BURLINGTON     MOSUNNY   18  12  77 NW5       30.54R WCI  11
CEDAR RAPIDS   MOSUNNY    7   4  87 NW6       30.52R WCI  -3
DES MOINES     CLOUDY    20  15  81 CALM      30.52S
KIRKSVILLE     MOSUNNY   20  16  84 NE8       30.52S WCI  10
OTTUMWA        MOSUNNY   19  13  77 NW3       30.53R
ST LOUIS       PTSUNNY   22  18  85 CALM      30.54S FOG
$$


CITY           SKY/WX    TMP DP  RH WIND       PRES   REMARKS
TERRE HAUTE    MOSUNNY   17  12  80 CALM      30.54R
EVANSVILLE     MOSUNNY   27  17  66 NE8       30.56R WCI  19
INDIANAPOLIS   PTSUNNY   17  10  74 SW3       30.51R
LAFAYETTE      PTSUNNY   11  11 100 CALM      30.52R
MADISON        MOSUNNY   17   9  70 W3        30.48R
MILWAUKEE      MOSUNNY   19   8  62 NW12      30.47R WCI   7
$$





USA.gov is the U.S. government's official web portal to all federal, state and local government web resources and services.